FW6557 Weather Reports


time (UTC)temp
F
wind
direction
speed
knots
gust
knots
rain 1hr
in
rain 24hr
in
rain mn
in
humidity
%
barometer
mb
20260504081545 37 255 3.5 13.9 0.05 0.44 0.21 96 978.0
20260504050014 41 325 0.0 3.5 0.01 0.24 0.01 92 974.9
20260504044522 41 18 0.0 4.3 0.00 0.23 0.00 91 975.1
20260504043015 41 111 0.0 7.8 0.00 0.23 0.00 90 975.3
20260504041608 41 113 1.7 10.4 0.00 0.23 0.00 90 975.4
20260504040006 42 67 2.6 11.3 0.00 0.23 0.00 89 976.1
20260504034504 42 79 1.7 9.6 0.00 0.23 0.00 89 976.4
20260504033100 42 103 7.8 16.5 0.00 0.23 0.00 89 976.6
20260504031557 43 153 7.0 14.8 0.00 0.23 0.00 90 976.9
20260504030053 43 119 11.3 17.4 0.00 0.23 0.23 90 977.4
20260504024551 43 101 4.3 13.9 0.00 0.23 0.23 89 978.0
20260504023051 43 82 9.6 20.9 0.00 0.23 0.23 89 978.1
20260504021548 43 81 13.0 22.6 0.00 0.23 0.23 89 978.6
20260504020044 42 100 9.6 20.0 0.00 0.23 0.23 89 979.4
20260504014553 42 86 10.4 25.2 0.00 0.23 0.23 89 980.5
20260504013038 42 94 13.9 26.9 0.00 0.23 0.23 89 981.4
20260504011535 42 56 8.7 15.6 0.00 0.23 0.23 89 982.6
20260504010033 43 49 10.4 24.3 0.00 0.23 0.23 90 982.9
20260504004530 43 46 7.0 24.3 0.00 0.23 0.23 89 984.5
20260504003029 43 69 13.9 32.2 0.02 0.23 0.23 89 984.3
20260504001527 43 78 14.8 24.3 0.04 0.23 0.23 91 984.7
20260504000023 42 49 6.1 24.3 0.05 0.23 0.23 91 986.0
20260503234535 42 38 9.6 22.6 0.05 0.23 0.23 92 986.5
20260503233019 41 103 6.1 15.6 0.03 0.21 0.21 92 987.5
20260503231518 41 41 9.6 18.2 0.02 0.19 0.19 92 988.5
20260503230017 40 120 6.1 10.4 0.03 0.18 0.18 92 989.5
20260503224513 40 53 7.8 20.0 0.06 0.18 0.18 92 990.7
20260503223009 40 9 1.7 13.0 0.07 0.18 0.18 93 991.9
20260503221505 40 346 3.5 11.3 0.06 0.17 0.17 93 992.9
20260503220005 40 32 1.7 6.1 0.06 0.15 0.15 93 993.7
20260503214502 40 36 2.6 10.4 0.04 0.12 0.12 92 994.1
20260503213111 40 53 8.7 18.2 0.03 0.11 0.11 91 994.3
20260503211558 41 97 3.5 13.9 0.03 0.10 0.10 90 994.7
20260503210103 43 59 7.0 17.4 0.03 0.09 0.09 89 995.4
20260503204556 44 360 6.1 14.8 0.04 0.08 0.08 89 995.6
20260503203102 43 339 4.3 16.5 0.06 0.08 0.08 90 995.6
20260503201552 43 69 6.1 17.4 0.05 0.07 0.07 90 997.4
20260503200052 43 52 3.5 14.8 0.04 0.06 0.06 89 997.6
20260503194545 43 22 6.1 16.5 0.04 0.04 0.04 86 998.6
20260503193049 44 355 9.6 20.0 0.02 0.02 0.02 85 998.5
20260503191541 44 34 4.3 10.4 0.02 0.02 0.02 83 1000.4
20260503190037 45 92 5.2 12.2 0.01 0.01 0.01 78 1001.9
20260503184534 46 72 7.8 16.5 0.00 0.00 0.00 71 1002.6
20260503183050 48 60 7.0 13.9 0.00 0.00 0.00 65 1003.1
20260503181529 49 86 3.5 7.0 0.00 0.00 0.00 56 1004.2
20260503180026 50 91 2.6 10.4 0.00 0.00 0.00 54 1004.6
20260503174524 51 88 3.5 10.4 0.00 0.00 0.00 53 1005.1
20260503173024 50 31 4.3 9.6 0.00 0.00 0.00 57 1005.3
20260503171521 50 82 4.3 11.3 0.00 0.00 0.00 54 1006.2